{"data":{"norad_id":67920,"epoch":"2026-09-19T22:09:04.584672Z","epoch_age_seconds":113118,"freshness":"FRESH","line1":"1 67920U 26036S   26262.92296973  .00015969  00000+0  58845-3 0  9998","line2":"2 67920  42.9984 228.6766 0001162 276.0004  84.0715 15.27587361 33420","mean_motion":15.27587361,"eccentricity":0.0001162,"inclination_deg":42.9984,"raan_deg":228.6766,"arg_perigee_deg":276.0004,"mean_anomaly_deg":84.0715,"bstar":0.00058845,"rev_number":3342,"period_min":94.266294469557,"perigee_km":482.22978738291,"apogee_km":483.82432190921,"semimajor_km":6861.1640546461,"source":"CELESTRAK","updated_at":"2026-09-20T09:00:43.704202Z"}}